[[{"header":{"parameterUnit":"m.s-1","parameterCategory":1,"la1":30.2991,"la2":30.254,"lo1":-89.0895,"lo2":-89.0444,"dy":0.0017,"dx":0.0017,"nx":28,"ny":28,"refTime":"2025-11-18T03:00:00:Z","depth":0,"parameterNumber":2,"parameterNumberName":"U-component_of_WINDS"},"data":[0,0,0,0,0,0,0,0,0,0,0,0,0,0,0,0,0,0,0,0,0,0,0,0,0,0,0,0,0,0,0,0,0,0,0,0,0,0,0,0,0,0,0,0,0,0,0,0,0,0,0,0,0,0,0,0,0,0,0.5388,0.5389,0,0.545,0.5451,0.5451,0.5478,0.5477,0.5477,0.5477,0.5542,0.5544,0.5546,0,0,0,0,0,0,0,0,0,0,0,0,0,0.5293,0.5295,0.5388,0.5389,0.5389,0.545,0.5451,0.5452,0.5478,0.5477,0.5477,0.5477,0.5542,0.5544,0.5546,0,0,0,0,0,0,0,0,0,0,0,0,0,0.5343,0.5295,0.5388,0.541,0.5412,0.545,0.5451,0.5452,0.5478,0.5477,0.5477,0.5477,0.5541,0.5544,0.5546,0.5567,0,0,0.5555,0.5556,0,0,0,0,0,0,0,0,0.534,0.5346,0.5406,0.5408,0.5411,0.5456,0.5441,0.5491,0.5478,0.5453,0.5477,0.5477,0.5514,0.5519,0.5531,0.557,0.5573,0.5555,0.5557,0.5558,0.5559,0,0,0,0,0,0,0,0.5336,0.5344,0.5413,0.5406,0.541,0.5417,0.5424,0.5451,0.5484,0.5455,0.5457,0.5464,0.5515,0.5528,0.5533,0.5574,0.5555,0.5557,0.5559,0.556,0.5634,0.5635,0,0,0,0,0,0,0.5329,0.5341,0.5411,0.5414,0.5374,0.5419,0.5426,0.5442,0.5483,0.549,0.5464,0.5465,0.5523,0.5529,0.5535,0.5563,0.5558,0.556,0.5562,0.5634,0.5635,0.5635,0,0,0,0,0,0,0.5327,0.5335,0.5408,0.5378,0.5388,0.5421,0.5438,0.5443,0.5456,0.549,0.5496,0.5471,0.5524,0.5531,0.5559,0.5565,0.5562,0.5564,0.5634,0.5634,0.5635,0.5618,0,0,0,0,0,0,0.5324,0.5334,0.5342,0.5378,0.5389,0.543,0.5438,0.5444,0.546,0.5462,0.5498,0.5504,0.5524,0.5555,0.5562,0.5569,0.5566,0.5633,0.5634,0.5635,0.5618,0.5617,0.5617,0,0,0,0,0,0.5321,0.5335,0.5342,0.5351,0.54,0.5431,0.5437,0.5459,0.5461,0.5469,0.5491,0.5503,0.5563,0.5557,0.5566,0.5574,0.5633,0.5634,0.5635,0.5618,0.5617,0.5617,0,0,0,0,0,0,0.5299,0.534,0.5349,0.5375,0.5399,0.5435,0.5446,0.5458,0.5483,0.5483,0.551,0.5518,0.5544,0.5562,0.5554,0.5596,0.5599,0.5602,0.5584,0.5584,0.5583,0.5579,0.5569,0,0,0,0,0,0.5297,0.5318,0.5353,0.5373,0.5385,0.5413,0.5428,0.5443,0.5469,0.548,0.5504,0.5529,0.5554,0.557,0.5595,0.562,0.5629,0.563,0.563,0.5629,0.5631,0.5647,0.5648,0.5637,0.5637,0.5637,0,0,0.5294,0.5319,0.533,0.5369,0.539,0.5412,0.5422,0.5445,0.5461,0.5483,0.5511,0.553,0.556,0.5587,0.5601,0.5603,0.5636,0.563,0.563,0.5632,0.5648,0.5649,0.565,0.5638,0.5638,0.5638,0,0,0.5298,0.5319,0.5338,0.5359,0.539,0.5409,0.5413,0.5448,0.5461,0.5489,0.5506,0.5527,0.5569,0.559,0.5607,0.562,0.5632,0.5628,0.5626,0.5641,0.5642,0.5643,0.5648,0.565,0.5629,0.5629,0.5629,0,0.529,0.5324,0.5347,0.5369,0.5385,0.5406,0.5426,0.5445,0.5482,0.5494,0.5496,0.5549,0.5571,0.5604,0.5607,0.562,0.5626,0.5624,0.564,0.5641,0.5642,0.5647,0.5649,0.5628,0.5629,0.5629,0.5629,0,0.5312,0.5335,0.5347,0.5382,0.5401,0.5421,0.5448,0.5464,0.5477,0.5496,0.5526,0.5553,0.5583,0.5592,0.5606,0.5627,0.5628,0.5634,0.5638,0.5642,0.5647,0.565,0.5627,0.5628,0.5628,0.5628,0,0,0.5305,0.5353,0.5357,0.5374,0.541,0.5428,0.545,0.548,0.5493,0.5519,0.5538,0.5574,0.558,0.5599,0.5615,0.5628,0.5638,0.5633,0.5634,0.5633,0.5664,0.5659,0.5661,0.5646,0.5646,0.5647,0.5661,0,0.5315,0.5354,0.5376,0.5407,0.5429,0.5449,0.5469,0.5493,0.5512,0.5534,0.5554,0.5579,0.5586,0.5597,0.5611,0.5634,0.5644,0.5633,0.5665,0.5666,0.5657,0.5663,0.5658,0.567,0.5664,0.5664,0.5664,0,0.5331,0.5356,0.5389,0.5424,0.5434,0.545,0.548,0.55,0.5529,0.5542,0.5562,0.5579,0.5603,0.5605,0.564,0.5632,0.5646,0.5659,0.566,0.5664,0.5665,0.5668,0.5675,0.5677,0.5668,0.5668,0.5667,0,0.5323,0.5365,0.539,0.5404,0.5444,0.5456,0.5473,0.5502,0.5518,0.5544,0.5556,0.5584,0.56,0.5622,0.5646,0.5645,0.5679,0.5682,0.569,0.569,0.5697,0.5696,0.5706,0.5706,0.5706,0.5706,0.5706,0,0.5332,0.5351,0.5387,0.5403,0.5425,0.5451,0.5473,0.5492,0.5517,0.5537,0.5557,0.5575,0.5605,0.5628,0.5647,0.5673,0.568,0.5691,0.5696,0.569,0.5688,0.57,0.57,0.5706,0.5706,0.5706,0.5706,0,0.5326,0.5351,0.538,0.5416,0.5425,0.5441,0.5472,0.5488,0.5508,0.5533,0.5541,0.5572,0.5599,0.5625,0.5662,0.5675,0.5702,0.5708,0.5692,0.5695,0.5702,0.5701,0.572,0.5724,0.572,0.572,0.572,0,0.533,0.5346,0.5383,0.5398,0.5415,0.5439,0.5456,0.5481,0.5499,0.5533,0.5545,0.5574,0.5599,0.5642,0.5669,0.5697,0.5704,0.5709,0.5709,0.5702,0.5705,0.5704,0.5706,0.5709,0.5709,0.5709,0.5709,0,0.5335,0.5347,0.537,0.5399,0.5419,0.5442,0.5467,0.5478,0.5508,0.5527,0.5555,0.5574,0.5612,0.5641,0.5673,0.5691,0.5705,0.5708,0.5712,0.5706,0.5696,0.5702,0.5691,0.5708,0.5708,0.5708,0.5708,0.5708,0.5335,0.535,0.5379,0.5405,0.5426,0.5448,0.5465,0.5487,0.5511,0.5544,0.5558,0.5586,0.5616,0.566,0.5678,0.5702,0.5705,0.571,0.5711,0.5712,0.5711,0.5692,0.5708,0.5708,0.5708,0.5708,0.5708,0,0.5341,0.536,0.5384,0.5418,0.5438,0.5449,0.5477,0.5494,0.5519,0.5544,0.5568,0.5601,0.563,0.5658,0.5688,0.5702,0.5709,0.5709,0.5708,0.5712,0.5706,0.57,0.5703,0.5703,0.5703,0.5703,0.5703,0.5703,0.5346,0.5372,0.5387,0.5424,0.5444,0.5472,0.5487,0.5508,0.5529,0.5565,0.5588,0.5607,0.5634,0.5666,0.5693,0.5701,0.5711,0.5709,0.5719,0.5713,0.5713,0.5713,0.5707,0.5711,0.5711,0.5723,0.5723,0.5723]},{"header":{"parameterUnit":"m.s-1","parameterCategory":1,"la1":30.2991,"la2":30.254,"lo1":-89.0895,"lo2":-89.0444,"dy":0.0017,"dx":0.0017,"nx":28,"ny":28,"refTime":"2025-11-18T03:00:00:Z","depth":0,"parameterNumber":3,"parameterNumberName":"V-component_of_WINDS"},"data":[0,0,0,0,0,0,0,0,0,0,0,0,0,0,0,0,0,0,0,0,0,0,0,0,0,0,0,0,0,0,0,0,0,0,0,0,0,0,0,0,0,0,0,0,0,0,0,0,0,0,0,0,0,0,0,0,0,0,-0.622,-0.6221,0,-0.631,-0.6311,-0.6312,-0.6337,-0.6337,-0.6336,-0.6336,-0.6429,-0.6432,-0.6435,0,0,0,0,0,0,0,0,0,0,0,0,0,-0.6071,-0.6074,-0.622,-0.6221,-0.6222,-0.6309,-0.6311,-0.6312,-0.6337,-0.6337,-0.6336,-0.6335,-0.6428,-0.6431,-0.6435,0,0,0,0,0,0,0,0,0,0,0,0,0,-0.6146,-0.6075,-0.6219,-0.6245,-0.6248,-0.6309,-0.6311,-0.6312,-0.6337,-0.6337,-0.6336,-0.6335,-0.6427,-0.6431,-0.6435,-0.6478,0,0,-0.6449,-0.6451,0,0,0,0,0,0,0,0,-0.6142,-0.6151,-0.624,-0.6243,-0.6247,-0.6311,-0.6293,-0.6368,-0.6338,-0.6304,-0.6336,-0.6335,-0.6391,-0.6398,-0.6416,-0.6482,-0.6486,-0.6449,-0.6452,-0.6454,-0.6455,0,0,0,0,0,0,0,-0.6136,-0.6148,-0.6255,-0.6241,-0.6246,-0.6252,-0.6262,-0.6307,-0.635,-0.6306,-0.6308,-0.6319,-0.6392,-0.6412,-0.6419,-0.6488,-0.6449,-0.6453,-0.6456,-0.6458,-0.6594,-0.6595,0,0,0,0,0,0,-0.6127,-0.6143,-0.6252,-0.6258,-0.6191,-0.6256,-0.6267,-0.6291,-0.635,-0.6358,-0.6319,-0.632,-0.6405,-0.6414,-0.6422,-0.6476,-0.6454,-0.6458,-0.6461,-0.6593,-0.6594,-0.6595,0,0,0,0,0,0,-0.6123,-0.6136,-0.6249,-0.6201,-0.6216,-0.6259,-0.6287,-0.6294,-0.6314,-0.6359,-0.6367,-0.6332,-0.6405,-0.6416,-0.6464,-0.648,-0.646,-0.6464,-0.6592,-0.6593,-0.6594,-0.6584,0,0,0,0,0,0,-0.6119,-0.6135,-0.6151,-0.6201,-0.6218,-0.6289,-0.6288,-0.6296,-0.6321,-0.6322,-0.6373,-0.6381,-0.6405,-0.6457,-0.6468,-0.6486,-0.6468,-0.659,-0.6592,-0.6594,-0.6583,-0.6585,-0.6587,0,0,0,0,0,-0.6114,-0.6145,-0.6152,-0.6165,-0.6239,-0.6289,-0.6299,-0.6326,-0.6322,-0.6339,-0.6369,-0.6379,-0.6476,-0.6462,-0.6475,-0.6494,-0.6589,-0.6592,-0.6594,-0.6583,-0.6585,-0.6587,0,0,0,0,0,0,-0.6096,-0.6152,-0.616,-0.6208,-0.6244,-0.6294,-0.6316,-0.6327,-0.6365,-0.6365,-0.6397,-0.6408,-0.6454,-0.6479,-0.6462,-0.6538,-0.6533,-0.6538,-0.652,-0.6523,-0.6524,-0.6518,-0.6471,0,0,0,0,0,-0.6097,-0.6132,-0.618,-0.6218,-0.6235,-0.6272,-0.6295,-0.6313,-0.6351,-0.6366,-0.6399,-0.6436,-0.6475,-0.65,-0.6539,-0.6587,-0.6599,-0.6606,-0.6608,-0.6609,-0.6613,-0.6641,-0.6645,-0.6602,-0.6602,-0.6602,0,0,-0.6101,-0.6136,-0.6156,-0.6215,-0.6245,-0.6281,-0.6285,-0.6323,-0.6351,-0.6372,-0.642,-0.6445,-0.6489,-0.6537,-0.656,-0.6559,-0.6628,-0.6612,-0.6612,-0.6616,-0.6644,-0.6648,-0.6651,-0.6603,-0.6603,-0.6603,0,0,-0.6126,-0.6156,-0.6191,-0.6221,-0.6266,-0.629,-0.6299,-0.6347,-0.6364,-0.6412,-0.6429,-0.6463,-0.6529,-0.656,-0.6584,-0.6621,-0.6633,-0.6633,-0.6642,-0.6669,-0.6672,-0.6675,-0.6689,-0.6694,-0.6636,-0.6636,-0.6636,0,-0.6126,-0.6181,-0.6208,-0.6246,-0.6271,-0.6292,-0.6328,-0.6356,-0.6411,-0.6428,-0.6426,-0.651,-0.6541,-0.6597,-0.6606,-0.6625,-0.6636,-0.6627,-0.6669,-0.6673,-0.6676,-0.669,-0.6695,-0.6636,-0.6636,-0.6636,-0.6636,0,-0.6178,-0.6216,-0.6239,-0.6291,-0.632,-0.6356,-0.639,-0.6415,-0.643,-0.6455,-0.6504,-0.6542,-0.6588,-0.6603,-0.6618,-0.6662,-0.666,-0.6663,-0.6659,-0.668,-0.6693,-0.6699,-0.6636,-0.6636,-0.6636,-0.6636,0,0,-0.6195,-0.6262,-0.627,-0.6294,-0.6345,-0.6375,-0.6413,-0.6459,-0.648,-0.6517,-0.655,-0.6606,-0.661,-0.6637,-0.6656,-0.6679,-0.6708,-0.668,-0.6682,-0.6684,-0.6759,-0.6756,-0.6762,-0.6715,-0.6716,-0.6717,-0.6755,0,-0.6227,-0.6296,-0.6321,-0.6377,-0.6413,-0.6434,-0.6467,-0.6502,-0.6526,-0.6561,-0.6588,-0.6627,-0.6628,-0.6645,-0.6669,-0.6699,-0.6723,-0.6696,-0.6747,-0.6748,-0.6736,-0.6769,-0.6767,-0.6801,-0.6761,-0.6762,-0.6762,0,-0.6275,-0.6312,-0.6371,-0.6418,-0.6434,-0.6464,-0.6508,-0.654,-0.658,-0.6597,-0.6627,-0.6645,-0.6686,-0.6679,-0.6736,-0.6718,-0.674,-0.6758,-0.676,-0.6766,-0.6757,-0.6777,-0.6812,-0.6818,-0.6771,-0.677,-0.6769,0,-0.6282,-0.6347,-0.6391,-0.6411,-0.6467,-0.6487,-0.6512,-0.6551,-0.6577,-0.6615,-0.6632,-0.6675,-0.6699,-0.6732,-0.676,-0.6752,-0.6816,-0.6811,-0.6831,-0.683,-0.6844,-0.6843,-0.6884,-0.6857,-0.6857,-0.6857,-0.6856,0,-0.6316,-0.6352,-0.6396,-0.6423,-0.6464,-0.6493,-0.6533,-0.6559,-0.6594,-0.6627,-0.6647,-0.6678,-0.6713,-0.6749,-0.6771,-0.6816,-0.6827,-0.6841,-0.6847,-0.684,-0.6838,-0.6855,-0.6854,-0.6858,-0.6858,-0.6857,-0.6857,0,-0.6331,-0.6362,-0.6412,-0.646,-0.6473,-0.6501,-0.6543,-0.6571,-0.6596,-0.6637,-0.6649,-0.6688,-0.6731,-0.6763,-0.6819,-0.6834,-0.6882,-0.6887,-0.6868,-0.6871,-0.689,-0.6888,-0.6944,-0.6954,-0.6919,-0.692,-0.692,0,-0.6351,-0.6379,-0.6431,-0.6454,-0.6478,-0.6515,-0.6542,-0.6572,-0.6599,-0.6647,-0.6669,-0.6713,-0.675,-0.6818,-0.6852,-0.6894,-0.6902,-0.6919,-0.6908,-0.6901,-0.6903,-0.6901,-0.6905,-0.692,-0.692,-0.692,-0.6921,0,-0.6384,-0.6397,-0.6434,-0.6477,-0.6507,-0.6542,-0.6578,-0.6596,-0.6633,-0.6662,-0.6706,-0.6734,-0.6791,-0.6835,-0.6881,-0.6907,-0.692,-0.6923,-0.6931,-0.6924,-0.6912,-0.692,-0.6873,-0.6922,-0.6922,-0.6922,-0.6922,-0.6922,-0.6403,-0.6429,-0.6469,-0.651,-0.6539,-0.6572,-0.66,-0.6629,-0.6666,-0.6714,-0.673,-0.6775,-0.6816,-0.6879,-0.6905,-0.6942,-0.6942,-0.6952,-0.6954,-0.6957,-0.6957,-0.6905,-0.695,-0.695,-0.695,-0.695,-0.695,0,-0.6437,-0.6464,-0.6501,-0.6549,-0.6581,-0.6591,-0.663,-0.6657,-0.6697,-0.6733,-0.6769,-0.682,-0.6862,-0.69,-0.6944,-0.6966,-0.6974,-0.6977,-0.6976,-0.6982,-0.6954,-0.6943,-0.6971,-0.6971,-0.697,-0.697,-0.697,-0.697,-0.6458,-0.6503,-0.6522,-0.6582,-0.6609,-0.6653,-0.6675,-0.6706,-0.6735,-0.679,-0.6826,-0.685,-0.6887,-0.6934,-0.6974,-0.6984,-0.7,-0.7002,-0.7014,-0.6986,-0.6984,-0.6982,-0.6972,-0.7005,-0.7005,-0.7039,-0.704,-0.704]}]]